[[{"header":{"parameterUnit":"m.s-1","parameterCategory":1,"la1":30.2991,"la2":30.254,"lo1":-89.0895,"lo2":-89.0444,"dy":0.0017,"dx":0.0017,"nx":28,"ny":28,"refTime":"2024-07-26T21:00:00:Z","depth":0,"parameterNumber":2,"parameterNumberName":"U-component_of_WINDS"},"data":[0,0,0,0,0,0,0,0,0,0,0,0,0,0,0,0,0,0,0,0,0,0,0,0,0,0,0,0,0,0,0,0,0,0,0,0,0,0,0,0,0,0,0,0,0,0,0,0,0,0,0,0,0,0,0,0,0,0,-0.1163,-0.1162,0,-0.107,-0.1069,-0.1068,-0.1006,-0.1006,-0.1005,-0.1005,-0.091,-0.0908,-0.0906,0,0,0,0,0,0,0,0,0,0,0,0,0,-0.1287,-0.1285,-0.1163,-0.1162,-0.116,-0.107,-0.1069,-0.1068,-0.1006,-0.1005,-0.1005,-0.1004,-0.091,-0.0908,-0.0905,0,0,0,0,0,0,0,0,0,0,0,0,0,-0.1218,-0.1285,-0.1163,-0.1119,-0.1114,-0.107,-0.1069,-0.1067,-0.1006,-0.1005,-0.1005,-0.1004,-0.0911,-0.0908,-0.0905,-0.0898,0,0,-0.0895,-0.0894,0,0,0,0,0,0,0,0,-0.1222,-0.1213,-0.1126,-0.1122,-0.1116,-0.1049,-0.1078,-0.1011,-0.1006,-0.1047,-0.1005,-0.1004,-0.0957,-0.095,-0.0934,-0.0894,-0.089,-0.0895,-0.0893,-0.0892,-0.0891,0,0,0,0,0,0,0,-0.1227,-0.1217,-0.1126,-0.1125,-0.1119,-0.1104,-0.1093,-0.1065,-0.1007,-0.1043,-0.1039,-0.1029,-0.0954,-0.0937,-0.0931,-0.0888,-0.0895,-0.0892,-0.089,-0.0889,-0.0838,-0.0839,0,0,0,0,0,0,-0.1238,-0.1221,-0.1129,-0.1123,-0.1169,-0.1102,-0.109,-0.1071,-0.1007,-0.0996,-0.1029,-0.1026,-0.0943,-0.0935,-0.0927,-0.0915,-0.0892,-0.0889,-0.0887,-0.0838,-0.0839,-0.0839,0,0,0,0,0,0,-0.1241,-0.1231,-0.1133,-0.1171,-0.1157,-0.1101,-0.108,-0.107,-0.1053,-0.0996,-0.0985,-0.1023,-0.0942,-0.0932,-0.0906,-0.0911,-0.0887,-0.0884,-0.0837,-0.0838,-0.0839,-0.0891,0,0,0,0,0,0,-0.1245,-0.1232,-0.1229,-0.1171,-0.1156,-0.1113,-0.108,-0.1068,-0.1047,-0.1042,-0.0987,-0.0977,-0.0941,-0.0911,-0.0903,-0.0906,-0.0882,-0.0836,-0.0838,-0.0839,-0.0889,-0.0894,-0.0898,0,0,0,0,0,-0.125,-0.1247,-0.1229,-0.1218,-0.115,-0.1113,-0.1104,-0.1062,-0.1048,-0.1044,-0.1008,-0.0979,-0.0912,-0.0909,-0.0899,-0.0902,-0.0836,-0.0837,-0.0839,-0.0887,-0.0893,-0.0898,0,0,0,0,0,0,-0.1307,-0.1239,-0.1218,-0.1196,-0.1161,-0.1103,-0.1097,-0.107,-0.1038,-0.1034,-0.0983,-0.0971,-0.0951,-0.0924,-0.0921,-0.0892,-0.0871,-0.087,-0.0911,-0.0916,-0.0921,-0.0928,-0.0879,0,0,0,0,0,-0.1317,-0.1292,-0.1234,-0.1221,-0.1205,-0.1154,-0.1136,-0.1107,-0.1068,-0.1053,-0.1015,-0.0979,-0.0949,-0.0931,-0.0901,-0.0885,-0.0872,-0.0882,-0.0886,-0.089,-0.0891,-0.0881,-0.0885,-0.0843,-0.0843,-0.0843,0,0,-0.1337,-0.1297,-0.1285,-0.1232,-0.1201,-0.1177,-0.1142,-0.1118,-0.11,-0.1049,-0.1023,-0.0994,-0.095,-0.0929,-0.0918,-0.0905,-0.0899,-0.0892,-0.0896,-0.0894,-0.0882,-0.0886,-0.089,-0.0844,-0.0844,-0.0844,0,0,-0.1363,-0.133,-0.1315,-0.1285,-0.1239,-0.1206,-0.1202,-0.1148,-0.1127,-0.1099,-0.1061,-0.1039,-0.0989,-0.096,-0.0938,-0.0953,-0.0926,-0.0945,-0.0969,-0.096,-0.0964,-0.0966,-0.0972,-0.0975,-0.0945,-0.0945,-0.0945,0,-0.1394,-0.1357,-0.1312,-0.129,-0.1268,-0.1221,-0.1207,-0.118,-0.1126,-0.1112,-0.1099,-0.1037,-0.1004,-0.0976,-0.0979,-0.0963,-0.0958,-0.0951,-0.0967,-0.0969,-0.0971,-0.0976,-0.0978,-0.0948,-0.0948,-0.0948,-0.0947,0,-0.1398,-0.1373,-0.1367,-0.1316,-0.1293,-0.1276,-0.1228,-0.121,-0.1183,-0.1151,-0.1124,-0.1083,-0.1044,-0.1035,-0.1008,-0.1004,-0.0997,-0.0976,-0.0954,-0.0978,-0.0982,-0.0984,-0.0952,-0.0951,-0.095,-0.095,0,0,-0.1457,-0.1382,-0.1381,-0.1357,-0.1303,-0.1283,-0.1263,-0.1225,-0.1211,-0.1176,-0.1158,-0.1118,-0.1098,-0.1074,-0.1043,-0.1035,-0.105,-0.1015,-0.1013,-0.1023,-0.1043,-0.106,-0.1063,-0.1032,-0.1032,-0.1032,-0.1047,0,-0.1475,-0.1436,-0.1395,-0.1372,-0.1348,-0.1304,-0.1286,-0.1252,-0.1221,-0.1197,-0.1163,-0.1136,-0.1111,-0.1097,-0.1087,-0.1051,-0.1054,-0.1049,-0.1015,-0.1015,-0.1028,-0.1065,-0.1082,-0.1099,-0.1049,-0.1049,-0.1049,0,-0.149,-0.1457,-0.1432,-0.138,-0.1368,-0.1354,-0.1316,-0.1293,-0.1253,-0.1231,-0.1205,-0.1172,-0.1149,-0.1129,-0.1098,-0.1095,-0.1079,-0.1059,-0.1059,-0.1055,-0.1034,-0.1062,-0.1103,-0.1106,-0.1051,-0.1051,-0.105,0,-0.1537,-0.1486,-0.1464,-0.1445,-0.1384,-0.1375,-0.1349,-0.1308,-0.1288,-0.1255,-0.1242,-0.1207,-0.1188,-0.1161,-0.112,-0.1109,-0.1093,-0.107,-0.1075,-0.1076,-0.1074,-0.1075,-0.1113,-0.1063,-0.1063,-0.1063,-0.1063,0,-0.1561,-0.1547,-0.1484,-0.1471,-0.1454,-0.1407,-0.1392,-0.1362,-0.1326,-0.1306,-0.1265,-0.1248,-0.1194,-0.1171,-0.1138,-0.1117,-0.1109,-0.1091,-0.1083,-0.1095,-0.1098,-0.1084,-0.1082,-0.1063,-0.1063,-0.1063,-0.1063,0,-0.161,-0.1567,-0.154,-0.1485,-0.1471,-0.1461,-0.1414,-0.1399,-0.1367,-0.1342,-0.1334,-0.1283,-0.1253,-0.1209,-0.1166,-0.1144,-0.1128,-0.1114,-0.1142,-0.1137,-0.1145,-0.1145,-0.1177,-0.1179,-0.1127,-0.1128,-0.1128,0,-0.1629,-0.1617,-0.1561,-0.1545,-0.152,-0.1495,-0.1474,-0.1427,-0.1408,-0.1361,-0.1353,-0.1319,-0.129,-0.1245,-0.1204,-0.117,-0.1156,-0.1169,-0.1151,-0.1164,-0.1157,-0.1158,-0.1157,-0.1174,-0.1175,-0.1175,-0.1176,0,-0.1667,-0.1647,-0.1618,-0.1583,-0.1559,-0.1529,-0.1497,-0.1486,-0.1433,-0.1413,-0.1382,-0.1359,-0.1315,-0.1283,-0.1244,-0.1218,-0.1188,-0.1182,-0.1182,-0.1194,-0.1211,-0.1203,-0.1155,-0.1182,-0.1181,-0.1181,-0.118,-0.118,-0.1702,-0.169,-0.1648,-0.1618,-0.1589,-0.156,-0.1544,-0.1509,-0.1483,-0.1443,-0.1417,-0.1388,-0.1348,-0.1293,-0.1268,-0.1244,-0.1232,-0.1231,-0.1231,-0.1232,-0.1237,-0.1215,-0.1237,-0.1237,-0.1237,-0.1237,-0.1236,0,-0.1739,-0.171,-0.1683,-0.1639,-0.1616,-0.159,-0.1553,-0.1535,-0.151,-0.1475,-0.1447,-0.1412,-0.1381,-0.1337,-0.1303,-0.1293,-0.1278,-0.1285,-0.1286,-0.128,-0.1249,-0.1254,-0.1297,-0.1297,-0.1297,-0.1297,-0.1297,-0.1297,-0.1755,-0.1733,-0.1708,-0.1671,-0.1642,-0.1613,-0.1594,-0.1567,-0.154,-0.1502,-0.1476,-0.1448,-0.141,-0.1372,-0.1343,-0.1331,-0.132,-0.1332,-0.1316,-0.1288,-0.1282,-0.1277,-0.1281,-0.1329,-0.133,-0.1348,-0.1349,-0.1349]},{"header":{"parameterUnit":"m.s-1","parameterCategory":1,"la1":30.2991,"la2":30.254,"lo1":-89.0895,"lo2":-89.0444,"dy":0.0017,"dx":0.0017,"nx":28,"ny":28,"refTime":"2024-07-26T21:00:00:Z","depth":0,"parameterNumber":3,"parameterNumberName":"V-component_of_WINDS"},"data":[0,0,0,0,0,0,0,0,0,0,0,0,0,0,0,0,0,0,0,0,0,0,0,0,0,0,0,0,0,0,0,0,0,0,0,0,0,0,0,0,0,0,0,0,0,0,0,0,0,0,0,0,0,0,0,0,0,0,3.3149,3.3149,0,3.316,3.316,3.3161,3.3141,3.3141,3.314,3.314,3.3149,3.315,3.3151,0,0,0,0,0,0,0,0,0,0,0,0,0,3.3109,3.311,3.3149,3.3149,3.3149,3.316,3.316,3.3161,3.3142,3.3141,3.314,3.3139,3.3149,3.315,3.3151,0,0,0,0,0,0,0,0,0,0,0,0,0,3.3124,3.311,3.3149,3.3141,3.3141,3.316,3.316,3.3161,3.3142,3.3141,3.314,3.3139,3.3148,3.3149,3.3151,3.3178,0,0,3.3155,3.3155,0,0,0,0,0,0,0,0,3.3123,3.3125,3.3142,3.3142,3.3141,3.3149,3.315,3.3166,3.3142,3.3141,3.314,3.3138,3.3149,3.3151,3.3155,3.3178,3.3179,3.3155,3.3156,3.3156,3.3156,0,0,0,0,0,0,0,3.3122,3.3125,3.3153,3.3143,3.3142,3.3136,3.3138,3.3153,3.315,3.3141,3.314,3.3142,3.3149,3.3153,3.3155,3.3179,3.3155,3.3156,3.3157,3.3157,3.3225,3.3226,0,0,0,0,0,0,3.3122,3.3124,3.3153,3.3154,3.313,3.3138,3.3139,3.3147,3.315,3.315,3.3142,3.3141,3.3152,3.3153,3.3155,3.3187,3.3156,3.3157,3.3158,3.3224,3.3225,3.3227,0,0,0,0,0,0,3.3122,3.3125,3.3153,3.3139,3.3142,3.314,3.3149,3.3148,3.3152,3.3151,3.315,3.3148,3.3151,3.3153,3.3172,3.3187,3.3158,3.3159,3.3223,3.3225,3.3226,3.3251,0,0,0,0,0,0,3.3121,3.3125,3.3136,3.3139,3.3143,3.3171,3.315,3.3149,3.3155,3.3153,3.3156,3.3156,3.315,3.3171,3.3174,3.3188,3.316,3.3222,3.3224,3.3226,3.3249,3.3254,3.3257,0,0,0,0,0,3.3119,3.3142,3.3136,3.314,3.3156,3.3171,3.3173,3.3168,3.3156,3.3167,3.3166,3.3155,3.3185,3.3173,3.3176,3.3191,3.3221,3.3223,3.3225,3.3247,3.3253,3.3257,0,0,0,0,0,0,3.3139,3.3142,3.3136,3.3161,3.3166,3.3168,3.3181,3.3174,3.3182,3.3179,3.3171,3.3172,3.3193,3.3194,3.318,3.3218,3.3201,3.3204,3.3216,3.3221,3.3225,3.3225,3.3161,0,0,0,0,0,3.3147,3.316,3.3161,3.3183,3.3186,3.3183,3.319,3.3185,3.319,3.3192,3.3193,3.3197,3.3208,3.3215,3.3224,3.3249,3.325,3.3261,3.3265,3.3269,3.3271,3.3285,3.329,3.3234,3.3234,3.3234,0,0,3.3162,3.3165,3.3174,3.3187,3.319,3.3204,3.3185,3.32,3.3209,3.3194,3.3212,3.3213,3.3218,3.324,3.325,3.3242,3.3287,3.3272,3.3274,3.3275,3.3288,3.3293,3.3298,3.3236,3.3236,3.3235,0,0,3.3196,3.32,3.3219,3.3223,3.3229,3.3227,3.3232,3.3235,3.3235,3.3254,3.3243,3.3254,3.3272,3.3276,3.328,3.3317,3.3307,3.332,3.3341,3.3354,3.3359,3.3362,3.3375,3.338,3.3322,3.3323,3.3323,0,3.3214,3.3234,3.3229,3.3244,3.325,3.3238,3.3257,3.3261,3.3269,3.3273,3.3264,3.3287,3.3289,3.3312,3.3321,3.3325,3.333,3.3319,3.3358,3.3362,3.3366,3.3378,3.3383,3.3324,3.3324,3.3324,3.3324,0,3.3256,3.327,3.3284,3.3294,3.3301,3.3318,3.3315,3.3323,3.3318,3.3317,3.3336,3.3338,3.3348,3.3353,3.3348,3.3376,3.337,3.336,3.3343,3.3373,3.3384,3.3389,3.3326,3.3326,3.3325,3.3325,0,0,3.3302,3.331,3.3315,3.3319,3.3326,3.3336,3.3352,3.3363,3.337,3.3376,3.3389,3.3405,3.3396,3.3401,3.3396,3.3407,3.3436,3.3395,3.3395,3.3403,3.3467,3.3475,3.3481,3.343,3.3431,3.3432,3.3467,0,3.3337,3.3366,3.3362,3.3389,3.3402,3.3391,3.3405,3.341,3.341,3.342,3.3419,3.3431,3.3417,3.342,3.3431,3.343,3.3449,3.3428,3.3442,3.3442,3.3441,3.3487,3.3495,3.3528,3.3471,3.3472,3.3473,0,3.338,3.339,3.3419,3.3424,3.3429,3.3442,3.3451,3.3461,3.3467,3.3466,3.3472,3.3464,3.348,3.3463,3.3484,3.347,3.3476,3.3476,3.3477,3.3478,3.3459,3.3489,3.3538,3.3543,3.348,3.3479,3.3478,0,3.3412,3.3431,3.3451,3.3455,3.3461,3.3471,3.3473,3.3478,3.3485,3.3493,3.3497,3.3506,3.3512,3.3519,3.3514,3.3502,3.3536,3.3519,3.3536,3.3536,3.3543,3.3543,3.3594,3.3547,3.3547,3.3547,3.3546,0,3.345,3.3469,3.3466,3.3478,3.3498,3.3493,3.3513,3.3514,3.3518,3.353,3.3521,3.3532,3.3526,3.3536,3.3533,3.3551,3.3553,3.3552,3.3551,3.3553,3.3553,3.3557,3.3554,3.3548,3.3548,3.3547,3.3547,0,3.3488,3.3487,3.3508,3.3513,3.3514,3.3529,3.3532,3.3543,3.3543,3.3558,3.3561,3.356,3.3572,3.3568,3.3581,3.3578,3.3602,3.3598,3.36,3.3599,3.3616,3.3615,3.3671,3.3679,3.3627,3.3627,3.3628,0,3.3513,3.3527,3.3533,3.3541,3.3545,3.3558,3.3565,3.356,3.3568,3.3575,3.3586,3.3597,3.3606,3.3626,3.3625,3.3635,3.3631,3.365,3.3632,3.3634,3.3631,3.3631,3.3632,3.3654,3.3654,3.3655,3.3655,0,3.3557,3.3556,3.3567,3.3578,3.3587,3.3596,3.3603,3.361,3.3606,3.3615,3.3627,3.3634,3.3648,3.3659,3.3668,3.367,3.3662,3.3661,3.3665,3.3668,3.3669,3.3669,3.361,3.366,3.3659,3.3659,3.3659,3.3659,3.3589,3.3601,3.3608,3.3621,3.3626,3.3633,3.3644,3.3645,3.3656,3.3667,3.3664,3.3678,3.3683,3.3695,3.3698,3.3709,3.3702,3.3708,3.371,3.3711,3.3714,3.3667,3.3711,3.3711,3.371,3.371,3.371,0,3.3632,3.3636,3.3648,3.366,3.367,3.3662,3.367,3.3678,3.3692,3.3698,3.3707,3.3722,3.3733,3.3734,3.3744,3.3753,3.3749,3.3756,3.3755,3.3756,3.372,3.3715,3.3758,3.3758,3.3758,3.3758,3.3758,3.3758,3.3656,3.3677,3.3676,3.3699,3.3703,3.3718,3.3723,3.3729,3.3734,3.3751,3.3761,3.3762,3.3766,3.3776,3.3786,3.3786,3.379,3.3798,3.3797,3.3763,3.3758,3.3753,3.3749,3.3799,3.3799,3.3832,3.3832,3.3832]}]]